TimeEST,TemperatureF,Dew PointF,Humidity,Sea Level PressureIn,VisibilityMPH,Wind Direction,Wind SpeedMPH,Gust SpeedMPH,PrecipitationIn,Events,Conditions,WindDirDegrees,DateUTC
12:14 AM,16.7,11.7,81,30.02,7.0,West,11.5,-,N/A,Snow,Light Snow,260,2013-02-20 05:14:00
12:35 AM,16.7,11.8,81,30.02,5.0,West,13.8,18.4,N/A,Snow,Light Snow,270,2013-02-20 05:35:00
12:55 AM,16.7,12.0,82,30.03,4.0,West,15.0,-,N/A,Snow,Light Snow,270,2013-02-20 05:55:00
1:14 AM,16.7,12.0,82,30.04,4.0,West,13.8,-,N/A,Snow,Light Snow,280,2013-02-20 06:14:00
1:35 AM,16.7,12.2,82,30.04,4.0,West,10.4,-,N/A,Snow,Light Snow,270,2013-02-20 06:35:00
1:54 AM,16.7,12.2,82,30.05,3.0,West,11.5,-,N/A,Snow,Light Snow,270,2013-02-20 06:54:00
2:14 AM,16.7,12.2,82,30.06,3.0,West,13.8,18.4,N/A,Snow,Light Snow,270,2013-02-20 07:14:00
2:35 AM,16.7,12.2,82,30.06,4.0,West,12.7,-,N/A,Snow,Light Snow,270,2013-02-20 07:35:00
2:54 AM,16.5,12.0,82,30.06,3.0,West,10.4,-,N/A,Snow,Light Snow,270,2013-02-20 07:54:00
3:15 AM,16.3,11.8,82,30.06,4.0,West,11.5,-,N/A,Snow,Light Snow,260,2013-02-20 08:15:00
3:35 AM,16.3,12.0,83,30.07,4.0,West,11.5,17.3,N/A,Snow,Light Snow,270,2013-02-20 08:35:00
3:54 AM,16.5,12.0,82,30.07,4.0,West,12.7,17.3,N/A,Snow,Light Snow,270,2013-02-20 08:54:00
4:15 AM,16.5,12.2,83,30.08,3.0,West,13.8,-,N/A,Snow,Light Snow,270,2013-02-20 09:15:00
4:35 AM,16.7,12.6,84,30.08,3.0,WNW,10.4,-,N/A,Snow,Light Snow,290,2013-02-20 09:35:00
4:54 AM,16.7,12.2,82,30.09,2.5,WNW,12.7,-,N/A,Snow,Light Snow,290,2013-02-20 09:54:00
5:15 AM,16.7,12.4,83,30.10,3.0,WNW,12.7,-,N/A,Snow,Light Snow,290,2013-02-20 10:15:00
5:35 AM,16.7,12.2,82,30.10,4.0,WNW,12.7,19.6,N/A,Snow,Light Snow,290,2013-02-20 10:35:00
5:54 AM,16.7,12.2,82,30.11,3.0,West,12.7,-,N/A,Snow,Light Snow,280,2013-02-20 10:54:00
6:15 AM,16.7,12.2,82,30.12,4.0,West,13.8,19.6,N/A,Snow,Light Snow,280,2013-02-20 11:15:00
6:35 AM,16.7,12.2,82,30.12,3.0,West,13.8,18.4,N/A,Snow,Light Snow,270,2013-02-20 11:35:00
6:54 AM,16.7,12.6,84,30.12,4.0,West,12.7,16.1,N/A,Snow,Light Snow,270,2013-02-20 11:54:00
7:15 AM,16.7,12.2,82,30.13,10.0,West,12.7,-,N/A,,Overcast,280,2013-02-20 12:15:00
7:55 AM,17.1,12.2,81,30.14,5.0,West,12.7,-,N/A,Snow,Light Snow,280,2013-02-20 12:55:00
8:15 AM,17.2,12.2,81,30.15,7.0,WNW,12.7,18.4,N/A,Snow,Light Snow,290,2013-02-20 13:15:00
8:34 AM,17.6,12.6,81,30.15,7.0,WNW,11.5,-,N/A,,Overcast,290,2013-02-20 13:34:00
8:55 AM,18.0,12.9,81,30.16,3.0,WNW,9.2,-,N/A,Snow,Light Snow,300,2013-02-20 13:55:00
9:15 AM,18.5,13.5,81,30.16,2.5,WNW,12.7,-,N/A,Snow,Light Snow,290,2013-02-20 14:15:00
9:34 AM,18.5,13.5,81,30.16,2.5,WNW,11.5,-,N/A,Snow,Light Snow,300,2013-02-20 14:34:00
9:55 AM,19.0,13.6,79,30.16,1.8,WNW,12.7,17.3,N/A,Snow,Light Snow,290,2013-02-20 14:55:00
10:15 AM,19.4,13.6,78,30.17,4.0,WNW,13.8,20.7,N/A,Snow,Light Snow,290,2013-02-20 15:15:00
10:34 AM,19.6,13.5,77,30.17,4.0,WNW,13.8,20.7,N/A,Snow,Light Snow,290,2013-02-20 15:34:00
10:55 AM,19.9,13.6,77,30.18,3.0,WNW,15.0,18.4,N/A,Snow,Light Snow,300,2013-02-20 15:55:00
11:15 AM,20.3,14.0,77,30.19,3.0,WNW,10.4,19.6,N/A,Snow,Light Snow,290,2013-02-20 16:15:00
11:34 AM,20.7,14.4,77,30.19,4.0,WNW,12.7,17.3,N/A,Snow,Light Snow,290,2013-02-20 16:34:00
11:55 AM,20.7,14.7,78,30.20,4.0,WNW,13.8,-,N/A,Snow,Light Snow,290,2013-02-20 16:55:00
12:14 PM,21.0,14.5,76,30.20,4.0,WNW,16.1,19.6,N/A,Snow,Light Snow,300,2013-02-20 17:14:00
12:35 PM,21.7,14.7,74,30.20,7.0,West,10.4,13.8,N/A,Snow,Light Snow,280,2013-02-20 17:35:00
12:55 PM,21.9,14.9,74,30.20,5.0,WNW,13.8,19.6,N/A,Snow,Light Snow,290,2013-02-20 17:55:00
1:14 PM,21.7,14.9,75,30.20,4.0,West,16.1,-,N/A,Snow,Light Snow,280,2013-02-20 18:14:00
1:35 PM,22.1,15.1,74,30.19,5.0,WNW,13.8,19.6,N/A,Snow,Light Snow,290,2013-02-20 18:35:00
1:54 PM,22.3,15.1,74,30.19,5.0,WNW,11.5,18.4,N/A,Snow,Light Snow,300,2013-02-20 18:54:00
2:15 PM,22.3,15.6,76,30.18,5.0,WNW,16.1,19.6,N/A,Snow,Light Snow,290,2013-02-20 19:15:00
2:35 PM,22.5,15.4,74,30.19,10.0,WNW,17.3,20.7,N/A,Snow,Light Snow,300,2013-02-20 19:35:00
2:54 PM,22.6,15.3,73,30.21,10.0,WNW,16.1,20.7,N/A,Snow,Light Snow,300,2013-02-20 19:54:00
3:15 PM,22.6,15.4,74,30.23,7.0,West,18.4,24.2,N/A,Snow,Light Snow,280,2013-02-20 20:15:00
3:34 PM,22.3,15.3,74,30.25,7.0,West,18.4,23.0,N/A,Snow,Light Snow,280,2013-02-20 20:34:00
3:55 PM,22.1,15.4,76,30.25,7.0,WNW,18.4,27.6,N/A,Snow,Light Snow,290,2013-02-20 20:55:00
4:15 PM,22.1,15.6,76,30.25,7.0,WNW,17.3,25.3,N/A,Snow,Light Snow,290,2013-02-20 21:15:00
4:34 PM,22.5,15.8,76,30.24,7.0,WNW,18.4,21.9,N/A,Snow,Light Snow,300,2013-02-20 21:34:00
4:55 PM,22.6,15.8,75,30.24,7.0,NW,11.5,21.9,N/A,Snow,Light Snow,310,2013-02-20 21:55:00
5:15 PM,22.6,15.8,75,30.24,7.0,NW,13.8,20.7,N/A,Snow,Light Snow,310,2013-02-20 22:15:00
5:34 PM,22.6,16.0,76,30.24,10.0,NW,8.1,-,N/A,Snow,Light Snow,320,2013-02-20 22:34:00
5:55 PM,22.8,16.2,76,30.24,7.0,NW,6.9,16.1,N/A,Snow,Light Snow,320,2013-02-20 22:55:00
6:15 PM,22.6,16.2,76,30.25,7.0,NNW,10.4,20.7,N/A,Snow,Light Snow,330,2013-02-20 23:15:00
6:34 PM,22.6,15.8,75,30.26,10.0,NNW,11.5,-,N/A,Snow,Light Snow,330,2013-02-20 23:34:00
6:55 PM,22.5,15.8,76,30.26,10.0,NW,11.5,16.1,N/A,Snow,Light Snow,320,2013-02-20 23:55:00
7:14 PM,22.5,15.4,74,30.26,10.0,NNW,13.8,21.9,N/A,Snow,Light Snow,330,2013-02-21 00:14:00
7:35 PM,22.3,15.8,76,30.27,10.0,NW,12.7,18.4,N/A,Snow,Light Snow,320,2013-02-21 00:35:00
7:54 PM,22.8,15.8,74,30.27,7.0,NNW,8.1,-,N/A,Snow,Light Snow,340,2013-02-21 00:54:00
8:14 PM,21.9,14.4,73,30.28,10.0,North,9.2,19.6,N/A,Snow,Light Snow,350,2013-02-21 01:14:00
8:35 PM,21.7,14.5,74,30.28,10.0,NNW,8.1,-,N/A,Snow,Light Snow,340,2013-02-21 01:35:00
8:54 PM,21.6,13.5,71,30.29,10.0,NNW,11.5,23.0,N/A,,Overcast,340,2013-02-21 01:54:00
9:15 PM,21.6,13.3,70,30.29,10.0,NNW,12.7,19.6,N/A,Snow,Light Snow,340,2013-02-21 02:15:00
9:35 PM,21.6,13.1,70,30.29,10.0,NNW,15.0,20.7,N/A,,Overcast,330,2013-02-21 02:35:00
9:54 PM,21.6,13.5,71,30.29,10.0,NNW,10.4,-,N/A,,Overcast,340,2013-02-21 02:54:00
10:15 PM,21.4,13.5,72,30.28,10.0,NNW,10.4,-,N/A,,Overcast,340,2013-02-21 03:15:00
10:34 PM,21.4,13.5,72,30.28,10.0,NNW,8.1,-,N/A,Snow,Light Snow,330,2013-02-21 03:34:00
10:55 PM,21.4,13.1,70,30.29,10.0,NNW,4.6,-,N/A,Snow,Light Snow,340,2013-02-21 03:55:00
11:15 PM,21.4,13.5,72,30.29,10.0,NNW,9.2,-,N/A,Snow,Light Snow,340,2013-02-21 04:15:00
11:34 PM,21.4,13.5,72,30.29,10.0,NNW,4.6,-,N/A,Snow,Light Snow,340,2013-02-21 04:34:00
11:55 PM,21.6,14.0,73,30.28,10.0,NNW,5.8,-,N/A,Snow,Light Snow,330,2013-02-21 04:55:00